This is the latest recevied weather packets stored in our database for station/object DH8TOM-3. If no packets are shown the sender has not sent any weather packets the latest 10 day(s).
| Time | Temp. | Humidity | Pressure | Rain* | Wind** | Luminosity | Snow |
|---|---|---|---|---|---|---|---|
| 1777334482 | 11.11° C | 54% | 1020.7 hPa | 0 mm | - | - | - |
| 1777334181 | 11.67° C | 53% | 1020.7 hPa | 0 mm | - | - | - |
| 1777333579 | 11.67° C | 53% | 1020.7 hPa | 0 mm | - | - | - |
| 1777332375 | 11.67° C | 52% | 1020.6 hPa | 0 mm | - | - | - |
| 1777329366 | 12.22° C | 53% | 1020.7 hPa | 0 mm | - | - | - |
| 1777311606 | 16.11° C | 41% | 1020.1 hPa | 0 mm | - | - | - |
| 1777310402 | 16.67° C | 41% | 1020.1 hPa | 0 mm | - | - | - |
| 1777310101 | 16.67° C | 42% | 1020.1 hPa | 0 mm | - | - | - |
| 1777307693 | 17.22° C | 39% | 1020.3 hPa | 0 mm | - | - | - |
| 1777306188 | 17.22° C | 39% | 1020.4 hPa | 0 mm | - | - | - |
| 1777305886 | 17.22° C | 39% | 1020.4 hPa | 0 mm | - | - | - |
| 1777305585 | 17.78° C | 38% | 1020.4 hPa | 0 mm | - | - | - |
| 1777304984 | 17.78° C | 39% | 1020.5 hPa | 0 mm | - | - | - |
| 1777304382 | 17.78° C | 41% | 1020.5 hPa | 0 mm | - | - | - |
| 1777304080 | 17.78° C | 41% | 1020.5 hPa | 0 mm | - | - | - |
| 1777303779 | 17.78° C | 40% | 1020.6 hPa | 0 mm | - | - | - |
| 1777302576 | 17.78° C | 40% | 1020.8 hPa | 0 mm | - | - | - |
| 1777302275 | 17.78° C | 40% | 1020.8 hPa | 0 mm | - | - | - |
| 1777300769 | 17.78° C | 43% | 1021 hPa | 0 mm | - | - | - |
| 1777300469 | 17.78° C | 43% | 1021 hPa | 0 mm | - | - | - |
| 1777300168 | 18.33° C | 40% | 1021.1 hPa | 0 mm | - | - | - |
| 1777299867 | 18.33° C | 40% | 1021.1 hPa | 0 mm | - | - | - |
| 1777299566 | 18.33° C | 45% | 1021.2 hPa | 0 mm | - | - | - |
| 1777299265 | 18.33° C | 45% | 1021.2 hPa | 0 mm | - | - | - |
| 1777298966 | 18.33° C | 43% | 1021.2 hPa | 0 mm | - | - | - |
* Rain latest hour (hover to see other rain measurements)
** Current wind speed in m/s (hover to see current wind gust speed)